Weather History for Sana, Yemen

Change the Weather History Date:

Wednesday, February 20, 2013

  Actual Average Record
Temperature  
Mean Temperature 66 °F -  
Max Temperature 84 °F 76 °F 84 °F (2003)
Min Temperature 49 °F 53 °F 41 °F (2009)
Cooling Degree Days 2    
Growing Degree Days 16 (Base 50)    
Moisture  
Dew Point 30 °F    
Average Humidity 29    
Maximum Humidity 58    
Minimum Humidity 4    
Precipitation  
Precipitation 0.00 in - - ()
Sea Level Pressure  
Sea Level Pressure 30.29 in    
Wind  
Wind Speed 3 mph ()    
Max Wind Speed 13 mph    
Max Gust Speed -    
Visibility 6.5 miles    
Events      
Averages and records for this station are not official NWS values.
T = Trace of Precipitation, MM = Missing Value Source: Averaged Metar Reports

Daily Weather History Graph

Daily Weather History Graph

Search for Another Location

Airport:

Trip Planner

Search our weather history database for the weather conditions in past years. The results will help you decide how hot, cold, wet, or windy it might be!

Date:

Astronomy

Feb. 20, 2013 Rise Set
Actual Time 6:25 AM AST 6:08 PM AST
Civil Twilight 6:03 AM AST 6:30 PM AST
Nautical Twilight 5:38 AM AST 6:55 PM AST
Astronomical Twilight 5:13 AM AST 7:20 PM AST
Moon 1:37 PM AST (2/20) 2:01 AM AST (2/20)
Length of Visible Light 12h 26m
Length of Day
11h 42m
Waxing Gibbous, 73% of the Moon is Illuminated
Feb 20
Waxing Gibbous
Feb 25
Full
Mar 5
Last Quarter
Mar 11
New
Mar 19
First Quarter

Hourly Weather History & Observations

Time (AST) Temp. Dew Point Humidity Pressure Visibility Wind Dir Wind Speed Gust Speed Precip Events Conditions
12:00 AM 60 °F 37 °F 31%  in 6 mi 2.3 mph - -  
12:00 AM 59.0 °F 37.4 °F 45% 30.27 in - Variable 2.3 mph - N/A   Clear
1:00 AM 57.2 °F 35.6 °F 44% 30.27 in - Calm Calm - N/A   Clear
2:00 AM 57.2 °F 37.4 °F 48% 30.27 in - Variable 2.3 mph - N/A   Clear
3:00 AM 56 °F 36 °F 35%  in 6 mi SSW 3.5 mph - -  
4:00 AM 55.4 °F 35.6 °F 47% 30.24 in - SW 4.6 mph - N/A   Clear
5:00 AM 51.8 °F 32.0 °F 47% 30.27 in - SW 4.6 mph - N/A   Clear
6:00 AM 52 °F 37 °F 46%  in 6 mi 2.3 mph - -  
6:00 AM 51.8 °F 37.4 °F 58% 30.27 in - Variable 2.3 mph - N/A   Clear
7:00 AM 51.8 °F 35.6 °F 54% 30.30 in - Variable 2.3 mph - N/A   Clear
8:00 AM 59.0 °F 28.4 °F 31% 30.33 in - Variable 2.3 mph - N/A   Clear
9:00 AM 65 °F 42 °F 31%  in 6 mi SW 3.5 mph - -  
9:00 AM 64.4 °F 41.0 °F 42% 30.36 in - SW 3.5 mph - N/A   Clear
10:00 AM 71.6 °F 41.0 °F 33% 30.36 in - Variable 2.3 mph - N/A   Clear
11:00 AM 77.0 °F 17.6 °F 11% 30.36 in - ENE 4.6 mph - N/A   Clear
12:00 PM 78 °F 12 °F 4%  in 12 mi SSW 4.6 mph - -  
12:00 PM 78.8 °F 12.2 °F 8% 30.33 in - SSW 4.6 mph - N/A   Clear
1:00 PM 80.6 °F 3.2 °F 5% 30.27 in 6.2 mi SE 5.8 mph - N/A   Partly Cloudy
2:00 PM 82.4 °F 8.6 °F 6% 30.24 in 6.2 mi North 6.9 mph - N/A   Partly Cloudy
3:00 PM 84.2 °F 10.4 °F 6% 30.21 in 6.2 mi ENE 5.8 mph - N/A   Partly Cloudy
4:00 PM 82.4 °F 6.8 °F 6% 30.21 in 6.2 mi NW 4.6 mph - N/A   Partly Cloudy
5:00 PM 82.4 °F 8.6 °F 6% 30.21 in 6.2 mi West 3.5 mph - N/A   Partly Cloudy
6:00 PM 76 °F 38 °F 15%  in 6 mi NW 11.5 mph - -   Scattered Clouds
6:00 PM 75.2 °F 37.4 °F 25% 30.27 in 6.2 mi NW 11.5 mph - N/A   Partly Cloudy
7:00 PM 71.6 °F 44.6 °F 38% 30.27 in 6.2 mi NW 12.7 mph - N/A   Partly Cloudy
8:00 PM 69.8 °F 44.6 °F 40% 30.30 in 6.2 mi West 5.8 mph - N/A   Partly Cloudy
9:00 PM 68 °F 42 °F 27%  in 6 mi SW 3.5 mph - -  
9:00 PM 68.0 °F 41.0 °F 37% 30.33 in - SW 3.5 mph - N/A   Clear
10:00 PM 68.0 °F 23.0 °F 18% 30.33 in - SE 5.8 mph - N/A   Clear
11:00 PM 64.4 °F 24.8 °F 22% 30.33 in - ENE 5.8 mph - N/A   Clear